This demonstration page uses our WeatherBlox Daily Observations layout. Learn more.

Left ArrowRight Arrow

Hourly Observations for July 29, 2019

Temp ( °F °C ) Dew Point ( °F °C ) Humidity (%) Winds ( mph kmh ) Pressure ( in mb ) Visibility ( mi km ) Precip ( " mm )
12:53 am 00:53 Clear 68 20 67 19.4 96 96 N N/A 30.06 1018 10 16 N/A
1:53 am 01:53 Clear 68 20 67 19.4 96 96 N N/A 30.06 1018 10 16 N/A
2:53 am 02:53 Clear 67 19.4 66 18.9 97 97 N N/A 30.06 1018 10 16 N/A
3:53 am 03:53 Clear 67 19.4 66 18.9 97 97 N N/A 30.04 1017 10 16 N/A
4:53 am 04:53 Clear 66 18.9 65 18.3 96 96 N N/A 30.04 1017 10 16 N/A
5:53 am 05:53 Clear 66 18.9 65 18.3 96 96 N N/A 30.04 1017 10 16 N/A
6:53 am 06:53 Sunny 66 18.9 65 18.3 96 96 N N/A 30.04 1017 9 14 N/A
7:53 am 07:53 Sunny 72 22.2 69 20.6 91 91 N N/A 30.05 1018 10 16 N/A
8:53 am 08:53 Sunny 78 25.6 70 21.1 76 76 N N/A 30.04 1017 10 16 N/A
9:53 am 09:53 Sunny 81 27.2 69 20.6 67 67 WSW 9 15 30.04 1017 10 16 N/A
10:53 am 10:53 Sunny 84 28.9 69 20.6 61 61 SW 8 13 30.03 1017 10 16 N/A
11:53 am 11:53 Sunny 85 29.4 67 19.4 55 55 SW 10 17 30.02 1017 10 16 N/A
12:53 pm 12:53 Partly Cloudy 85 29.4 67 19.4 55 55 SW 10 17 30.00 1016 10 16 N/A
1:53 pm 13:53 Mostly Sunny 89 31.7 66 18.9 47 47 VRB 7 11 29.97 1015 10 16 N/A
2:53 pm 14:53 Mostly Sunny 87 30.6 65 18.3 48 48 SSW 10 17 29.96 1015 10 16 N/A
3:53 pm 15:53 Sunny 88 31.1 65 18.3 46 46 VRB 7 11 29.94 1014 10 16 N/A
4:53 pm 16:53 Partly Cloudy 86 30 64 17.8 48 48 SW 12 19 29.93 1014 10 16 N/A
5:53 pm 17:53 Mostly Sunny 86 30 64 17.8 48 48 SW 12 19 29.93 1014 10 16 N/A
6:53 pm 18:53 Partly Cloudy 84 28.9 66 18.9 55 55 SW 7 11 29.93 1013 10 16 N/A
7:53 pm 19:53 Mostly Cloudy 76 24.4 66 18.9 72 72 W 9 15 29.96 1015 10 16 N/A
8:53 pm 20:53 Mostly Cloudy 75 23.9 67 19.4 76 76 WSW 5 7 29.96 1015 10 16 N/A
9:53 pm 21:53 Partly Cloudy 74 23.3 67 19.4 79 79 WSW 7 11 29.96 1014 10 16 N/A
10:53 pm 22:53 Mostly Clear 72 22.2 69 20.6 91 91 VRB 3 6 29.96 1015 10 16 0.00 0.00
11:53 pm 23:53 Mostly Cloudy with Light Rain 71 21.7 69 20.6 94 94 WSW 3 6 29.97 1015 10 16 0.01 0.25

Powered by AerisWeather